Regional Weather Roundup
Issued by NWS

Home | Current Version | Previous Version | Text Only | Print | Product List | Glossary Off
Versions: 1 2 3 4 5 6 7 8 9 10 11 12 13 14 15 16 17 18 19 20 21 22 23 24 25 26 27 28 29 30 31 32 33 34 35 36 37 38 39 40 41 42 43 44 45 46 47 48 49 50

000
ASUS43 KMKX 260821
RWRWI

WISCONSIN REGIONAL WEATHER ROUNDUP
NATIONAL WEATHER SERVICE MILWAUKEE/SULLIVAN WI
300 AM CDT MON JUN 26 2017

NOTE: "FAIR" INDICATES FEW OR NO CLOUDS BELOW 12,000 FEET WITH NO
SIGNIFICANT WEATHER AND/OR OBSTRUCTIONS TO VISIBILITY.

WIZ001-002-006>008-014>016-023>028-260900-
NORTHWEST WISCONSIN

CITY           SKY/WX    TMP DP  RH WIND       PRES   REMARKS
SUPERIOR ARPT  NOT AVBL
ASHLAND        CLOUDY    48  42  80 NW10      30.08S
HAYWARD        CLEAR     45  42  89 NW3       30.10S
SIREN          CLEAR     41  40  95 CALM      30.13S
CUMBERLAND     CLEAR     45  43  93 N7        30.11S
RICE LAKE      CLEAR     47  44  88 NW3       30.13R
CHETEK         CLEAR     48  46  92 NW3       30.10S
LADYSMITH      CLEAR     46  45  93 NW10      30.09S
EAU CLAIRE     CLEAR     47  45  93 W3        30.09S
MENOMONIE      CLEAR     48  45  88 W6        30.11S
NEW RICHMOND   CLEAR     47  42  82 NW7       30.13S
OSCEOLA        CLEAR     45  45 100 CALM      30.16S
$$

WIZ003>005-009-010-017-018-260900-
NORTH CENTRAL WISCONSIN

CITY           SKY/WX    TMP DP  RH WIND       PRES   REMARKS
MANITOWISH WTR CLOUDY    46  46 100 NW12      30.02S
ARBOR VITAE    MOCLDY    49  46  90 NW10      30.01S
WOODRUFF       MOCLDY    49  46  90 NW10      30.01S
RHINELANDER    CLOUDY    47  46  97 W7        30.02S
EAGLE RIVER    CLOUDY    46  45  95 NW10      30.00S
LAND O LAKES   CLOUDY    46  44  91 NW10      30.01S
PHILLIPS       CLOUDY    45  45  99 NW5       30.05R
TOMAHAWK       NOT AVBL
MEDFORD        CLEAR     45  44  96 NW6       30.05S
MERRILL        CLEAR     46  46  99 W7        30.05R
$$

WIZ029-030-035-036-043>047-260900-
CENTRAL WISCONSIN

CITY           SKY/WX    TMP DP  RH WIND       PRES   REMARKS
WAUSAU         CLEAR     48  47  96 NW8       30.03S
MOSINEE        CLEAR     45  45 100 W7        30.05S
MARSHFIELD     CLEAR     47  43  86 W6        30.05S
STEVENS POINT  CLEAR     47  47  97 W6        30.05S
WAUPACA        CLEAR     50  48  93 W3        30.05R
WAUTOMA        CLEAR     48  46  93 W6        30.06S
WISC RAPIDS    CLEAR     48  45  89 W7        30.07S
CAMP DOUGLAS   CLEAR     44  43  97 W6        30.07F
$$

WIZ011>013-019>022-031-037>040-048>050-260900-
NORTHEAST WISCONSIN

CITY           SKY/WX    TMP DP  RH WIND       PRES   REMARKS
ANTIGO         CLEAR     45  45 100 W8        30.02S
SHAWANO        PTCLDY    50  47  90 W3        30.02S
OCONTO         CLEAR     48  46  91 W5        30.00S
STURGEON BAY     N/A     53  47  79 W13         N/A
GREEN BAY      CLEAR     51  50  96 SW3       30.02S
MANITOWOC      CLEAR     54  49  83 W7        30.02S
APPLETON       CLEAR     48  48 100 W8        30.02S
CLINTONVILLE   CLEAR     48  46  93 W5        30.03S
OSHKOSH        CLEAR     51  47  86 W3        30.04S
$$

WIZ032>034-041-042-053>061-260900-
SOUTHWEST WISCONSIN

CITY           SKY/WX    TMP DP  RH WIND       PRES   REMARKS
LA CROSSE      CLEAR     54  49  83 CALM      30.10S
SPARTA         MOCLDY    43  42  99 CALM      30.10S
VIROQUA        CLEAR     48  46  95 W3        30.10S
BOSCOBEL       CLEAR     49  47  93 CALM      30.11S
PRAIRIE DU CHI MOCLDY    48  45  88 CALM      30.12R
PLATTEVILLE    CLEAR     49  47  93 SW5       30.12S
$$

WIZ056-057-062-063-064-067-068-260900-
SOUTH CENTRAL WISCONSIN

CITY           SKY/WX    TMP DP  RH WIND       PRES   REMARKS
REEDSBURG      CLEAR     48  48 100 CALM      30.08F
BARABOO/DELLS  CLEAR     47  46  97 CALM      30.08S
LONE ROCK      CLEAR     47  45  93 CALM      30.09F
MINERAL POINT  CLEAR     52  48  87 CALM      30.10F
MADISON        CLEAR     53  50  89 VRB3      30.08S
MIDDLETON      CLEAR     49  49 100 W3        30.09S
WATERTOWN      NOT AVBL
MONROE         CLEAR     52  46  82 W9        30.10S
JANESVILLE     CLEAR     50  50 100 W3        30.09S
$$

WIZ051-052-058>065-066-070>072-260900-
SOUTHEAST WISCONSIN

CITY           SKY/WX    TMP DP  RH WIND       PRES   REMARKS
MILWAUKEE      PTCLDY    58  50  75 W7        30.06F
WAUKESHA       CLEAR     50  46  87 W7        30.07F
MILWAUKEE/TIMM PTCLDY    54  46  76 W7        30.06F
RACINE         CLOUDY    56  49  77 W5        30.08S
KENOSHA        CLOUDY    56  48  74 W8        30.07F
FOND DU LAC    CLEAR     52  46  80 W6        30.05S
SHEBOYGAN      CLEAR     52  51  97 W6        30.03S
WEST BEND      CLEAR     52  50  93 W8        30.05S
JUNEAU         CLEAR     50  47  88 CALM      30.07F
$$

LSZ147-162-260900-
LAKE SUPERIOR

STATION/POSITION TIME  TEMP    WIND        PRES    WAVE
                       AIR SEA DIR/SP/G            HT/PER
                 (UTC) (F)     (DEG/KT/KT) (MB)    (FT/S)
W MID LAKE BUOY  0750   44 39  330/ 14/ 17 1016.7R   2/ 4
DEVILS ISLAND    0800   48     330/ 19/ 21 1018.4S
SAXON HARBOR     0740   52     350/ 14/ 19 1017.6S
$$

LMZ867-665-643>646-260900-
LAKE MICHIGAN

STATION/POSITION TIME  TEMP    WIND        PRES    WAVE
                       AIR SEA DIR/SP/G            HT/PER
                 (UTC) (F)     (DEG/KT/KT) (MB)    (FT/S)
CHAMBERS ISLAND  0740   53     260/  7/ 12 1014.6S
S GREEN BAY BUOY 0800   55     270/ 14/ 17 1015.6
N MID LAKE BUOY  0750   56 58  300/ 10/ 12 1014.3F   1/ 3
NORTHPORT PIER   0740   56     300/  9/ 12 1014.2F
KEWAUNEE LAKESHO 0754   53     290/  6/ 11 1015.4S
SHEBOYGAN LAKESH 0800   55     270/  9/ 10 1016.5F
PORT WASHINGTON  0730   56     270/  6/ 10 1017.9F
ATWATER BUOY     0709   58 56  260/ 12/ 14 1017.7F
MILWAUKEE LAKESH 0750   58     280/  9/ 10   N/A
S MID LAKE BUOY  0750   60 61  320/ 16/ 17 1017.4F   3/ 5
KENOSHA   LAKESH 0800   58     270/ 10/ 13 1017.9
$$

TC  - TEMPERATURE IN CELSIUS
VSB - VISIBILITY IN STATUTE MILES
WCI - WIND CHILL INDEX
HX  - HEAT INDEX




USA.gov is the U.S. government's official web portal to all federal, state and local government web resources and services.